[ hide orbit diagram ]
For accurate long-term ephemerides, please instead use our Horizons system.This orbit viewer was implemented using two-body methods, and hence should not be used for determining accurate long-term trajectories (over several years or decades) or planetary encounter circumstances.
Orbital Elements at Epoch 2459000.5 (2020-May-31.0) TDB
Reference: JPL 24 (heliocentric ecliptic J2000)
Element | Value | Uncertainty (1-sigma) | Units |
e | .09270070641297619 | 4.8863e-08 | |
a | 2.66289381212441 | 1.422e-08 | au |
q | 2.416041674637734 | 1.3641e-07 | au |
i | 12.99923977254491 | 5.0154e-06 | deg |
node | 352.6119391557939 | 1.9226e-05 | deg |
peri | 139.7364959096427 | 3.4975e-05 | deg |
M | 330.8106634992325 | 2.819e-05 | deg |
tp | 2459129.191813829367 (2020-Oct-06.69181383) | 0.0001244 | TDB |
period | 1587.191027016122 4.35 | 1.2714e-05 3.481e-08 | d yr |
n | .2268157983962338 | 1.8168e-09 | deg/d |
Q | 2.909745949611086 | 1.5538e-08 | au |
|
| | Orbit Determination Parameters
Additional Information
|
[ show covariance matrix ]
Physical Parameter Table
Parameter |
Symbol |
Value |
Units |
Sigma |
Reference |
Notes |
absolute magnitude |
H |
14.5 |
|
n/a |
MPO502637 |
|
diameter |
diameter |
3.814 |
km |
0.618 |
urn:nasa:pds:neowise_diameters_albedos::2.0[mainbelt] (http://adsabs.harvard.edu/abs/2011ApJ...741...68M) |
|
rotation period |
rot_per |
25.5219 |
h |
n/a |
LCDB (Rev. 2020-October); Warner et al., 2009 |
Result based on less than full coverage, so that the period may be wrong by 30 percent or so. Published Reference List: [Pal, A.; Szakats, R.; Kiss, C.; Bodi, A.; et al. (2019) Ap. J. Supl. Ser. 247, id.26.] |
geometric albedo |
albedo |
0.278 |
|
0.051 |
urn:nasa:pds:neowise_diameters_albedos::2.0[mainbelt] (http://adsabs.harvard.edu/abs/2011ApJ...741...68M) |
|
|
79911 (1999 CK) Discovered 1999-Feb-04 by Kobayashi, T. at Oizumi |
Reference: 20040504/Numbers.arc | Last Updated: 2004-07-16 |
|
|